Simultaneous Nadir Overpasses (SNOs) Predictions

Prediction of SNOs between GOES-16 and AQUA Satellite Orbit:

Table of predicted SNOs for the next 14.0 days since TLE Epoch: 8/31/2024
Index Date Time (GOES-16) GOES-16 Lat,Lon AQUA Lat,Lon Distance(km) Time Diff (sec)
1 09/01/2024 19:14:47 -0.04, -75.21 0.17, -74.33 100.25 80
2 09/02/2024 07:32:02 0.04, -75.21 0.90, -79.15 448.39 80
3 09/04/2024 07:17:21 0.04, -75.23 -0.05, -74.91 36.66 80
4 09/06/2024 19:17:19 -0.04, -75.26 -0.09, -75.50 26.93 80
5 09/08/2024 19:02:32 -0.04, -75.29 0.85, -71.24 461.73 80
6 09/09/2024 07:22:25 0.03, -75.29 0.20, -76.04 85.32 80
7 09/11/2024 07:02:15 0.03, -75.32 -0.76, -71.77 404.80 80
8 09/11/2024 19:22:16 -0.03, -75.33 -0.27, -76.61 144.85 80
9 09/13/2024 19:07:22 -0.02, -75.37 0.65, -72.32 346.95 80
